| time (UTC) | temp F | wind direction | speed MPH | gust MPH | rain 1hr in | rain 24hr in | rain mn in | humidity % | barometer mb |
| 20260503020027 | 68 | 249 | 0.0 | 0.0 | 0.00 | 0.00 | 0.00 | 38 | 1013.4 |
| 20260503014526 | 68 | 249 | 0.0 | 3.0 | 0.00 | 0.00 | 0.00 | 35 | 1013.5 |
| 20260503013025 | 69 | 248 | 0.0 | 4.0 | 0.00 | 0.00 | 0.00 | 33 | 1013.5 |
| 20260503011524 | 69 | 259 | 0.0 | 5.0 | 0.00 | 0.00 | 0.00 | 35 | 1013.5 |
| 20260503010028 | 69 | 250 | 1.0 | 4.0 | 0.00 | 0.00 | 0.00 | 34 | 1013.5 |
| 20260503004521 | 70 | 271 | 1.0 | 7.0 | 0.00 | 0.00 | 0.00 | 30 | 1013.7 |
| 20260503003023 | 72 | 247 | 1.0 | 6.0 | 0.00 | 0.00 | 0.00 | 31 | 1013.7 |
| 20260503001520 | 72 | 167 | 0.0 | 4.0 | 0.00 | 0.00 | 0.00 | 30 | 1013.7 |
| 20260503000018 | 72 | 324 | 2.0 | 5.0 | 0.00 | 0.00 | 0.00 | 28 | 1013.8 |
| 20260502234524 | 73 | 247 | 1.0 | 4.0 | 0.00 | 0.00 | 0.00 | 31 | 1013.9 |
| 20260502233016 | 72 | 123 | 1.0 | 6.0 | 0.00 | 0.00 | 0.00 | 29 | 1014.1 |
| 20260502231514 | 72 | 234 | 2.0 | 8.0 | 0.00 | 0.00 | 0.00 | 30 | 1014.3 |
| 20260502230013 | 71 | 271 | 1.0 | 8.0 | 0.00 | 0.00 | 0.00 | 30 | 1014.5 |
| 20260502224513 | 70 | 243 | 5.0 | 10.0 | 0.00 | 0.00 | 0.00 | 32 | 1014.7 |
| 20260502223010 | 71 | 216 | 5.0 | 9.0 | 0.00 | 0.00 | 0.00 | 31 | 1014.9 |
| 20260502221507 | 71 | 251 | 4.0 | 9.0 | 0.00 | 0.00 | 0.00 | 31 | 1015.0 |
| 20260502220008 | 72 | 257 | 3.0 | 7.0 | 0.00 | 0.00 | 0.00 | 28 | 1015.2 |
| 20260502214515 | 72 | 356 | 0.0 | 7.0 | 0.00 | 0.00 | 0.00 | 27 | 1015.2 |
| 20260502213003 | 71 | 90 | 0.0 | 6.0 | 0.00 | 0.00 | 0.00 | 26 | 1015.4 |
| 20260502211601 | 71 | 25 | 1.0 | 8.0 | 0.00 | 0.00 | 0.00 | 29 | 1015.6 |
| 20260502210100 | 71 | 246 | 4.0 | 7.0 | 0.00 | 0.00 | 0.00 | 31 | 1016.0 |
| 20260502204614 | 70 | 266 | 2.0 | 7.0 | 0.00 | 0.00 | 0.00 | 31 | 1016.0 |
| 20260502203056 | 70 | 298 | 2.0 | 11.0 | 0.00 | 0.00 | 0.00 | 31 | 1016.1 |
| 20260502201554 | 70 | 255 | 3.0 | 11.0 | 0.00 | 0.00 | 0.00 | 32 | 1016.4 |
| 20260502200053 | 69 | 252 | 5.0 | 12.0 | 0.00 | 0.00 | 0.00 | 33 | 1016.5 |
| 20260502194552 | 70 | 287 | 2.0 | 7.0 | 0.00 | 0.00 | 0.00 | 35 | 1016.5 |
| 20260502193053 | 70 | 276 | 1.0 | 7.0 | 0.00 | 0.00 | 0.00 | 36 | 1016.6 |
| 20260502191551 | 69 | 301 | 4.0 | 9.0 | 0.00 | 0.00 | 0.00 | 37 | 1016.9 |
| 20260502190047 | 68 | 245 | 2.0 | 7.0 | 0.00 | 0.00 | 0.00 | 38 | 1017.0 |
| 20260502184555 | 68 | 31 | 2.0 | 6.0 | 0.00 | 0.00 | 0.00 | 38 | 1017.1 |
| 20260502183045 | 67 | 86 | 2.0 | 7.0 | 0.00 | 0.00 | 0.00 | 38 | 1017.2 |
| 20260502181544 | 67 | 327 | 0.0 | 5.0 | 0.00 | 0.00 | 0.00 | 41 | 1017.3 |
| 20260502163025 | 60 | 334 | 1.0 | 5.0 | 0.00 | 0.00 | 0.00 | 57 | 1018.1 |
| 20260502161520 | 59 | 295 | 0.0 | 2.0 | 0.00 | 0.00 | 0.00 | 59 | 1018.1 |
| 20260502151504 | 50 | 246 | 0.0 | 2.0 | 0.00 | 0.00 | 0.00 | 72 | 1018.3 |
| 20260502123050 | 38 | 117 | 0.0 | 1.0 | 0.00 | 0.00 | 0.00 | 90 | 1017.8 |
| 20260502121551 | 38 | 197 | 0.0 | 3.0 | 0.00 | 0.00 | 0.00 | 90 | 1017.9 |
| 20260502114542 | 38 | 147 | 0.0 | 0.0 | 0.00 | 0.00 | 0.00 | 90 | 1017.8 |
| 20260502113038 | 38 | 147 | 0.0 | 0.0 | 0.00 | 0.00 | 0.00 | 90 | 1017.7 |
| 20260502111539 | 38 | 198 | 1.0 | 2.0 | 0.00 | 0.00 | 0.00 | 91 | 1017.7 |
| 20260502110035 | 38 | 255 | 0.0 | 0.0 | 0.00 | 0.00 | 0.00 | 91 | 1017.6 |
| 20260502104529 | 38 | 116 | 0.0 | 0.0 | 0.00 | 0.00 | 0.00 | 90 | 1017.2 |
| 20260502103027 | 38 | 116 | 0.0 | 0.0 | 0.00 | 0.00 | 0.00 | 90 | 1017.1 |
| 20260502101524 | 39 | 116 | 0.0 | 0.0 | 0.00 | 0.00 | 0.00 | 90 | 1016.8 |
| 20260502091519 | 39 | 214 | 0.0 | 1.0 | 0.00 | 0.00 | 0.00 | 89 | 1016.5 |
| 20260502070057 | 44 | 212 | 0.0 | 0.0 | 0.00 | 0.00 | 0.00 | 82 | 1016.7 |
| 20260502064551 | 45 | 212 | 0.0 | 0.0 | 0.00 | 0.00 | 0.00 | 80 | 1016.6 |
| 20260502063049 | 46 | 215 | 0.0 | 1.0 | 0.00 | 0.00 | 0.00 | 78 | 1016.4 |
| 20260502061546 | 46 | 148 | 0.0 | 0.0 | 0.00 | 0.00 | 0.00 | 78 | 1016.3 |
| 20260502060044 | 46 | 207 | 0.0 | 1.0 | 0.00 | 0.00 | 0.00 | 78 | 1016.3 |
| 20260502054545 | 47 | 214 | 0.0 | 1.0 | 0.00 | 0.00 | 0.00 | 78 | 1016.1 |
| 20260502051540 | 48 | 248 | 0.0 | 1.0 | 0.00 | 0.00 | 0.00 | 75 | 1016.1 |
| 20260502050040 | 49 | 155 | 0.0 | 0.0 | 0.00 | 0.00 | 0.00 | 74 | 1016.1 |
| 20260502044540 | 50 | 155 | 0.0 | 1.0 | 0.00 | 0.00 | 0.00 | 70 | 1016.0 |
| 20260502043039 | 50 | 150 | 0.0 | 0.0 | 0.00 | 0.00 | 0.00 | 69 | 1015.8 |
| 20260502041538 | 51 | 150 | 0.0 | 0.0 | 0.00 | 0.00 | 0.00 | 66 | 1015.7 |
| 20260502040036 | 53 | 205 | 0.0 | 0.0 | 0.00 | 0.00 | 0.00 | 62 | 1015.6 |
| 20260502034535 | 54 | 204 | 0.0 | 1.0 | 0.00 | 0.00 | 0.00 | 58 | 1015.5 |
| 20260502033041 | 55 | 203 | 0.0 | 0.0 | 0.00 | 0.00 | 0.00 | 56 | 1015.4 |
| 20260502031531 | 57 | 96 | 0.0 | 0.0 | 0.00 | 0.00 | 0.00 | 55 | 1015.1 |
| 20260502030030 | 59 | 96 | 0.0 | 1.0 | 0.00 | 0.00 | 0.00 | 55 | 1015.0 |
| 20260502024530 | 61 | 33 | 1.0 | 2.0 | 0.00 | 0.00 | 0.00 | 48 | 1014.7 |
| 20260502023030 | 65 | 254 | 0.0 | 0.0 | 0.00 | 0.00 | 0.00 | 38 | 1014.5 |
| 20260502021528 | 66 | 239 | 0.0 | 3.0 | 0.00 | 0.00 | 0.00 | 34 | 1014.5 |